Location: Bogis-Bossey
(46.3500°N, 6.1667°E)
Time: 18:25:13
(UTC+00:00)

Lacrosse 5 - Pass Details

Date: 17 August 2022
Orbit: 714 x 724 km, 57.0° (Epoch: 09 March)

Event Time Altitude Azimuth Distance (km) Brightness Sun altitude
Exits shadow 23:28:30 34° 53° (NE) 1,187 3.2 -30.4°
Drops below altitude 10° 23:31:19 10° 52° (NE) 2,212 4.8 -30.4°
Sets 23:33:42 0° 52° (NE) 3,137 5.6 -30.5°
